www.pogodaiklimat.ru

Погода и климат >> Архив погоды >> Ирак >> Насирия


ПОГОДА в Насирии

  • Прогноз погоды в Насирии
  • Монитор погоды в Насирии

АРХИВ ПОГОДЫ в Насирии

Время (UTC), дата Ветер
(напр.,м/с)
 
Видим.   Явления Облачность Т
(С)
Тd
(С)
f
(%)
Тe
(С)
Тes
(С)
Комфортность P
(гПа)
Po
(гПа)
Тmin
(С)
Tmax
(С)
R
(мм)
R24
(мм)
S
(см)
06 16.08 З 4 10 км ясно +37.8 +1.3 10 +34 +42 очень
жарко
1004.2 1003.9 +32.0
12 16.08 ЮЗ 5 10 км ясно +45.2 +2.2 7 +42 +47 опасность
перегрева
1001.5 1001.2
15 16.08 З 3 10 км ясно +43.4 +5.6 10 +41 +41 опасность
перегрева
1000.4 1000.1
18 16.08 З 3 10 км ясно +38.0 +8.5 17 +36 +36 очень
жарко
1001.8 1001.5 +45.5
21 16.08 З 2 10 км ясно +34.6 +9.6 22 +34 +34 очень
жарко
1001.6 1001.3
00 17.08 штиль 0 50 км ?/? +31.4 +9.5 26 +31 +31 жарко 1001.2 1000.9
03 17.08 ЮЗ 2 10 км ясно +30.0 +9.3 28 +30 +30 жарко 1001.3 1001.0
06 17.08 З 2 10 км ясно +36.6 +6.2 15 +34 +45 очень
жарко
1002.2 1001.9 +29.8
09 17.08 З 4 10 км ясно +42.4 +1.0 8 +39 +52 опасность
солнечного
удара
1001.7 1001.4
12 17.08 З 5 10 км ясно +43.0 -2.2 6 +39 +45 очень
жарко
1000.1 999.8
15 17.08 СЗ 4 10 км ясно +41.0 +3.2 10 +38 +38 очень
жарко
999.3 999.0
18 17.08 З 3 10 км ясно +36.6 +6.2 15 +34 +34 очень
жарко
1000.2 999.9 +43.4
21 17.08 СЗ 3 10 км ясно +33.8 +8.1 21 +32 +32 жарко 999.9 999.6
00 18.08 З 2 10 км ясно +30.2 +8.0 25 +29 +29 жарко 999.6 999.3
03 18.08 З 2 10 км ясно +27.4 +9.3 32 +28 +28 жарко 1000.8 1000.5
06 18.08 ЮЗ 2 10 км ясно +35.8 +7.1 17 +34 +45 очень
жарко
1002.1 1001.8 +26.6
09 18.08 З 3 10 км ясно +41.6 +12.0 17 +41 +57 опасность
перегрева
1001.8 1001.5
15 18.08 СЗ 3 10 км ясно +42.0 +11.0 16 +41 +41 опасность
перегрева
1001.3 1001.0
18 18.08 СЗ 2 10 км ясно +38.4 +12.1 21 +38 +38 очень
жарко
1002.7 1002.4 +44.2
21 18.08 С 1 10 км ясно +35.8 +14.7 28 +37 +37 душно 1002.9 1002.6
00 19.08 С 2 10 км ясно +33.8 +15.2 33 +36 +36 очень
душно
1003.9 1003.6
03 19.08 СЗ 1 10 км ясно +31.8 +13.2 32 +33 +33 жарко 1003.9 1003.6
06 19.08 З 5 8000 м пыль ясно +35.6 +11.9 24 +35 +41 очень
жарко
1005.8 1005.5 +30.5
09 19.08 З 6 8000 м пыль ясно +43.0 +11.3 15 +42 +50 опасность
перегрева
1005.2 1004.9
12 19.08 СЗ 5 10 км ясно +45.0 +9.4 12 +43 +49 опасность
перегрева
1003.6 1003.3
15 19.08 З 2 10 км ясно +43.4 +10.3 14 +42 +42 опасность
перегрева
1003.9 1003.6
18 19.08 З 2 10 км ясно +38.2 +10.6 19 +37 +37 очень
жарко
1005.1 1004.8 +45.5
21 19.08 СЗ 2 10 км ясно +34.6 +9.1 21 +33 +33 жарко 1004.6 1004.3
00 20.08 СЗ 1 10 км ясно +32.0 +11.6 29 +32 +32 жарко 1003.8 1003.5
03 20.08 СЗ 2 10 км ясно +28.4 +9.9 32 +29 +29 жарко 1005.1 1004.8
06 20.08 З 3 10 км ясно +38.4 +8.6 16 +36 +46 очень
жарко
1006.5 1006.2 +28.0
09 20.08 З 4 8000 м пыль ясно +45.0 +7.3 11 +43 +56 опасность
перегрева
1005.7 1005.4
12 20.08 С 4 8000 м пыль ясно +46.8 +8.1 10 +45 +52 опасность
перегрева
1003.7 1003.4
15 20.08 СЗ 3 10 км ясно +45.0 +9.0 12 +43 +43 опасность
перегрева
1003.3 1003.0
18 20.08 СЗ 4 10 км ясно +39.0 +7.3 15 +37 +37 очень
жарко
1004.3 1004.0 +47.0
21 20.08 З 3 10 км ясно +36.2 +7.9 18 +34 +34 очень
жарко
1004.0 1003.7
00 21.08 СЗ 1 10 км ясно +35.0 +10.9 23 +34 +34 очень
жарко
1003.1 1002.8
03 21.08 С 2 10 км ясно +31.2 +9.7 26 +31 +31 жарко 1004.2 1003.9
06 21.08 З 3 10 км ясно +39.0 +10.4 18 +38 +47 очень
жарко
1005.6 1005.3 +31.0
09 21.08 С 4 10 км ясно +46.6 +5.4 9 +44 +57 опасность
перегрева
1004.4 1004.1
15 21.08 З 3 10 км ясно +45.6 +5.1 9 +43 +43 опасность
перегрева
1002.2 1001.9
18 21.08 З 2 10 км ясно +39.0 +6.0 13 +36 +36 очень
жарко
1003.3 1003.0 +48.5
21 21.08 З 2 10 км ясно +36.0 +8.2 18 +34 +34 очень
жарко
1003.2 1002.9
00 22.08 ЮЗ 2 10 км ясно +34.0 +7.9 20 +32 +32 жарко 1003.4 1003.1
06 22.08 ЮЗ 2 10 км ясно +37.4 +9.1 18 +36 +47 очень
жарко
1003.9 1003.6 +32.2
09 22.08 СЗ 5 10 км ясно +43.2 +8.0 12 +41 +51 опасность
перегрева
1003.0 1002.7
15 22.08 СЗ 6 10 км ясно +42.4 +6.1 11 +40 +40 очень
жарко
1001.3 1001.0
21 22.08 СЗ 3 10 км ясно +33.2 +8.2 21 +32 +32 жарко 1002.7 1002.4
03 23.08 СЗ 2 10 км ясно +30.0 +9.3 28 +30 +30 жарко 1003.0 1002.7

 

Местоположение метеостанции Насирия (Ирак): широта 31.08 долгота 46.23 высота над уровнем моря 3 м.

В архиве по умолчанию представлена погода в Насирии за последнюю неделю. Архивные данные за месяц целиком и за предыдущие месяцы, начиная с января 2011 года, Вы можете получить, выбрав интересующий диапазон дат из раскрывающегося списка и нажав кнопку "Ввод!".


*Определитесь, кто Вы:
робот инопланетянин человек

Внимание! Время в таблицах - всемирное. Для получения местного времени необходимо прибавить поправку, которая равна 3 ч.

Смотрите также архив погоды в соседних городах и на ближайших метеорологических станциях:

Погода в Рифаи (Ирак) (72 км)
Погода в Эс-Самаве (Ирак) (95 км)
Погода в Кут-аль-Хай (Ирак) (122 км)
Погода в Амаре (Ирак) (124 км)
Погода в Дивании (Ирак) (155 км)
Погода в Басре (Ирак) (159 км)
Погода в Басре аэропорт (Ирак) (161 км)
Погода в Али Аль-Гарби (Ирак) (161 км)
Погода в Убайда Бин Аль Джарра (Ирак) (163 км)
Погода на Метеостанции Mintribah (Кувейт) (178 км)

Пояснения к столбцам:

Ветер - указаны скорость ветра в м/с - средняя за 10 мин, порывы в срок и между сроками (в фигурных скобках) и направление, откуда дует ветер: С - северный, СВ - северо-восточный, В - восточный, ЮВ - юго-восточный, Ю - южный, ЮЗ - юго-западный, З - западный, СЗ - северо-западный.
Видимость - горизонтальная дальность видимости в метрах или километрах. При видимости от 1 до 10 км при отсутствии осадков обычно наблюдается дымка, при ухудшении видимости до 1 км и менее - туман. В сухую погоду видимость может ухудшаться дымом, пылью или мглою.
Явления - указаны атмосферные явления, наблюдавшиеся в срок или в последний час перед сроком; фигурными скобками обозначены явления, наблюдавшиеся между сроками (за 1-3 часа до срока); квадратными скобками обозначены град или гололедные отложения с указанием их диаметра в мм.
Облачность - указаны через наклонную черту общая и нижняя облачность в баллах и высота нижней границы облаков в метрах; квадратными скобками обозначены формы облаков: Ci - перистые, Cs - перисто-слоистые, Cc - перисто-кучевые, Ac - высококучевые, As - высокослоистые, Sc - слоисто-кучевые, Ns - слоисто-дождевые, Cu - кучевые, Cb - кучево-дождевые. Подробнее классификацию облаков см. в Атласе облаков (PDF).
T - Температура воздуха - температура, измеренная на высоте 2 м над землей.
Td - Температура точки росы - температура, при понижении до которой содержащийся в воздухе водяной пар достигнет насыщения.
f - Относительная влажность воздуха - влажноcть воздуха, измеренная на высоте 2 м над землей.
Te - Эффективная температура - температура, которую ощущает одетый по сезону человек в тени. Характеристика душности погоды. При расчете учитывается влияние влажности воздуха и скорости ветра на теплоощущения человека.
Tes - Эффективная температура на солнце - температура, которую ощущает человек, с поправкой на солнечный нагрев. Характеристика знойности погоды. Зависит от высоты солнца над горизонтом, облачности и скорости ветра. Ночью, в пасмурную погоду, а также при ветре 12 м/с и более поправка равна нулю.
P - Атмосферное давление - приведенное к уровню моря атмосферное давление.
Po - Атмосферное давление - измеренное на уровне метеостанции атмосферное давление.
Tmin - Минимальная температура - минимум температуры воздуха на высоте 2 м над землей.
Tmax - Максимальная температура - максимум температуры воздуха на высоте 2 м над землей.
R - Количество осадков - Количество выпавших осадков за период времени, мм. При наведении курсора мыши на число - период времени, за который выпало указанное количество осадков.
R24 - Количество осадков - Количество выпавших осадков за 24 часа, мм.
S - Снежный покров - Высота снежного покрова, см. При наведении курсора мыши на число - состояние снежного покрова и степень покрытия местности в баллах.